Flight Information

DEPARTURE
JACKSON, WY
Elevation:
6450
Runways:
1/19 - 6300x150 - ASPH-G
ATIS:
120.625
Ground:
124.55
Tower:
JACKSON TOWER 118.075
DESTINATION
,
Elevation:
TPA:
1000 (est.)


6291.1 NM75° True-15° Var60° HDG

Flight Plan:
(click to file on line)

1. Type
2. Aircraft Identification
3. Aircraft Type / Special Equipment
4. True Airspeed
kts
5. Departure Airport
(ICAO code)
6. Arriving Airport
(ICAO code)
7. Cruising Altitude
ft
8. Alternate Airport
(ICAO code)
9. Route of Flight
10. Remarks


00:00:00 Departure ATIS: Destination ATIS:

Clearance Limit:
Route:
Altitude: Expect in minutes
Frequency:
Transponder: (7500 Hijack / 7600 Lost Comms / 7700 Emergency)


KJAC 030856Z AUTO 34004KT 10SM SCT055 OVC100 03/02 A3025 RMK AO2 SLP240 6//// T00330022 53008 PNO $
Time: 2022-10-03T08:56:00Z
1664787861
Winds: 340 @ 4 kts
Visibility: 10.0 sm
Clouds (AGL): SCT 5500
OVC 10000
Temperature: 3.3 C
Dew Point: 2.2 C
Pressure: 30.250984 in Hgbr


Notes:

Data extracted from FAA Digital Chart Supplement. Effective: 0901Z Thursday, 27 JAN 2022 to 0900z Thursday, 24 MAR 2022
Current ATIS data is provided courtisy of PilotEdge.